Time,TemperatureF,DewpointF,PressureIn,WindDirection,WindDirectionDegrees,WindSpeedMPH,WindSpeedGustMPH,Humidity,HourlyPrecipIn,Conditions,Clouds,dailyrainin,SoftwareType,DateUTC
2013-03-12 00:00:00,34.1,31.5,29.76,WSW,249,4.0,15.0,90,0.00,,---,0.00,VWS V14.01,2013-03-12 04:00:00,
2013-03-12 00:02:00,34.1,31.5,29.76,SSW,208,3.0,6.0,90,0.00,,---,0.00,VWS V14.01,2013-03-12 04:02:00,
2013-03-12 00:07:00,34.0,31.6,29.76,WSW,243,4.0,7.0,91,0.00,,---,0.00,VWS V14.01,2013-03-12 04:07:00,
2013-03-12 00:12:00,33.9,31.6,29.77,SSW,206,5.0,8.0,91,0.00,,---,0.00,VWS V14.01,2013-03-12 04:12:00,
2013-03-12 00:17:00,33.9,31.6,29.77,SW,222,7.0,12.0,91,0.00,,---,0.00,VWS V14.01,2013-03-12 04:17:00,
2013-03-12 00:23:00,33.9,31.6,29.77,WNW,297,3.0,12.0,91,0.00,,---,0.00,VWS V14.01,2013-03-12 04:23:00,
2013-03-12 00:28:00,33.9,31.6,29.77,West,271,5.0,12.0,91,0.00,,---,0.00,VWS V14.01,2013-03-12 04:28:00,
2013-03-12 00:30:00,33.9,31.6,29.77,SW,229,5.0,12.0,91,0.00,,---,0.00,VWS V14.01,2013-03-12 04:30:00,
2013-03-12 00:33:00,33.9,31.6,29.77,NW,313,7.0,8.0,91,0.00,,---,0.00,VWS V14.01,2013-03-12 04:33:00,
2013-03-12 00:38:00,33.9,31.3,29.77,West,277,5.0,8.0,90,0.00,,---,0.00,VWS V14.01,2013-03-12 04:38:00,
2013-03-12 00:43:00,33.9,31.3,29.78,WSW,243,2.0,12.0,90,0.00,,---,0.00,VWS V14.01,2013-03-12 04:43:00,
2013-03-12 00:49:00,33.9,31.3,29.78,WSW,237,7.0,12.0,90,0.00,,---,0.00,VWS V14.01,2013-03-12 04:49:00,
2013-03-12 00:54:00,33.8,31.2,29.78,SW,215,1.0,13.0,90,0.00,,---,0.00,VWS V14.01,2013-03-12 04:54:00,
2013-03-12 00:59:00,33.8,31.2,29.79,WSW,242,4.0,16.0,90,0.00,,---,0.00,VWS V14.01,2013-03-12 04:59:00,
2013-03-12 01:00:00,33.8,31.2,29.79,SSW,211,2.0,16.0,90,0.00,,---,0.00,VWS V14.01,2013-03-12 05:00:00,
2013-03-12 01:04:00,33.8,31.2,29.78,West,262,5.0,11.0,90,0.00,,---,0.00,VWS V14.01,2013-03-12 05:04:00,
2013-03-12 01:09:00,33.7,31.1,29.78,WSW,238,2.0,16.0,90,0.00,,---,0.00,VWS V14.01,2013-03-12 05:09:00,
2013-03-12 01:15:00,33.7,31.1,29.78,WSW,248,4.0,16.0,90,0.00,,---,0.00,VWS V14.01,2013-03-12 05:15:00,
2013-03-12 01:20:00,33.7,31.1,29.78,WNW,292,3.0,16.0,90,0.00,,---,0.00,VWS V14.01,2013-03-12 05:20:00,
2013-03-12 01:25:00,33.6,31.0,29.79,WSW,239,8.0,16.0,90,0.00,,---,0.00,VWS V14.01,2013-03-12 05:25:00,
2013-03-12 01:30:00,33.6,31.3,29.79,West,271,4.0,16.0,91,0.00,,---,0.00,VWS V14.01,2013-03-12 05:30:00,
2013-03-12 01:35:00,33.6,31.0,29.79,WSW,246,12.0,14.0,90,0.00,,---,0.00,VWS V14.01,2013-03-12 05:35:00,
2013-03-12 01:46:00,33.5,30.9,29.79,SW,228,7.0,14.0,90,0.00,,---,0.00,VWS V14.01,2013-03-12 05:46:00,
2013-03-12 01:51:00,33.5,31.2,29.80,West,281,2.0,14.0,91,0.00,,---,0.00,VWS V14.01,2013-03-12 05:51:00,
2013-03-12 01:56:00,33.3,31.2,29.80,WSW,248,8.0,14.0,92,0.00,,---,0.00,VWS V14.01,2013-03-12 05:56:00,
2013-03-12 02:00:00,33.2,31.1,29.80,South,179,2.0,14.0,92,0.00,,---,0.00,VWS V14.01,2013-03-12 06:00:00,
2013-03-12 02:02:00,33.2,31.1,29.80,WNW,293,4.0,6.0,92,0.00,,---,0.00,VWS V14.01,2013-03-12 06:02:00,
2013-03-12 02:07:00,33.1,31.3,29.80,NNE,31,3.0,10.0,93,0.00,,---,0.00,VWS V14.01,2013-03-12 06:07:00,
2013-03-12 02:12:00,33.0,31.2,29.81,NW,307,4.0,10.0,93,0.00,,---,0.00,VWS V14.01,2013-03-12 06:12:00,
2013-03-12 02:17:00,33.0,31.2,29.81,NW,308,3.0,12.0,93,0.00,,---,0.00,VWS V14.01,2013-03-12 06:17:00,
2013-03-12 02:23:00,33.0,31.2,29.81,SW,225,4.0,12.0,93,0.00,,---,0.00,VWS V14.01,2013-03-12 06:23:00,
2013-03-12 02:28:00,33.0,31.2,29.81,West,263,2.0,12.0,93,0.00,,---,0.00,VWS V14.01,2013-03-12 06:28:00,
2013-03-12 02:30:00,33.0,31.2,29.81,West,264,4.0,12.0,93,0.00,,---,0.00,VWS V14.01,2013-03-12 06:30:00,
2013-03-12 02:33:00,33.1,31.3,29.81,WNW,294,3.0,10.0,93,0.00,,---,0.00,VWS V14.01,2013-03-12 06:33:00,
2013-03-12 02:38:00,33.0,31.2,29.82,West,266,1.0,11.0,93,0.00,,---,0.00,VWS V14.01,2013-03-12 06:38:00,
2013-03-12 02:43:00,33.0,31.2,29.82,SW,215,3.0,11.0,93,0.00,,---,0.00,VWS V14.01,2013-03-12 06:43:00,
2013-03-12 02:49:00,33.0,31.2,29.82,West,270,5.0,14.0,93,0.00,,---,0.00,VWS V14.01,2013-03-12 06:49:00,
2013-03-12 02:54:00,33.0,31.2,29.82,South,186,2.0,14.0,93,0.00,,---,0.00,VWS V14.01,2013-03-12 06:54:00,
2013-03-12 02:59:00,33.0,31.2,29.83,NW,312,7.0,14.0,93,0.00,,---,0.00,VWS V14.01,2013-03-12 06:59:00,
2013-03-12 03:00:00,33.0,31.2,29.83,NW,318,4.0,14.0,93,0.00,,---,0.00,VWS V14.01,2013-03-12 07:00:00,
2013-03-12 03:04:00,33.1,31.3,29.83,SSE,155,1.0,6.0,93,0.00,,---,0.00,VWS V14.01,2013-03-12 07:04:00,
2013-03-12 03:09:00,33.1,31.0,29.83,WSW,249,4.0,9.0,92,0.00,,---,0.00,VWS V14.01,2013-03-12 07:09:00,
2013-03-12 03:15:00,33.1,30.8,29.82,WNW,293,4.0,13.0,91,0.00,,---,0.00,VWS V14.01,2013-03-12 07:15:00,
2013-03-12 03:20:00,33.2,30.9,29.82,North,354,2.0,13.0,91,0.00,,---,0.00,VWS V14.01,2013-03-12 07:20:00,
2013-03-12 03:25:00,33.2,30.9,29.82,SSE,155,5.0,13.0,91,0.00,,---,0.00,VWS V14.01,2013-03-12 07:25:00,
2013-03-12 03:30:00,33.2,30.6,29.82,West,270,7.0,13.0,90,0.00,,---,0.00,VWS V14.01,2013-03-12 07:30:00,
2013-03-12 03:36:00,33.1,30.5,29.83,SW,217,9.0,13.0,90,0.00,,---,0.00,VWS V14.01,2013-03-12 07:36:00,
2013-03-12 03:46:00,32.9,30.6,29.83,WSW,241,13.0,14.0,91,0.00,,---,0.00,VWS V14.01,2013-03-12 07:46:00,
2013-03-12 03:51:00,32.8,30.5,29.83,West,266,5.0,14.0,91,0.00,,---,0.00,VWS V14.01,2013-03-12 07:51:00,
2013-03-12 03:57:00,32.6,30.3,29.83,West,278,8.0,14.0,91,0.00,,---,0.00,VWS V14.01,2013-03-12 07:57:00,
2013-03-12 04:00:00,32.6,30.5,29.83,West,281,3.0,14.0,92,0.00,,---,0.00,VWS V14.01,2013-03-12 08:00:00,
2013-03-12 04:02:00,32.5,30.4,29.83,WSW,245,5.0,8.0,92,0.00,,---,0.00,VWS V14.01,2013-03-12 08:02:00,
2013-03-12 04:07:00,32.4,30.3,29.83,SSW,211,4.0,8.0,92,0.00,,---,0.00,VWS V14.01,2013-03-12 08:07:00,
2013-03-12 04:12:00,32.4,30.3,29.84,West,266,1.0,11.0,92,0.00,,---,0.00,VWS V14.01,2013-03-12 08:12:00,
2013-03-12 04:17:00,32.5,30.4,29.84,WNW,293,3.0,12.0,92,0.00,,---,0.00,VWS V14.01,2013-03-12 08:17:00,
2013-03-12 04:23:00,32.5,30.2,29.84,WSW,238,7.0,12.0,91,0.00,,---,0.00,VWS V14.01,2013-03-12 08:23:00,
2013-03-12 04:28:00,32.5,30.2,29.84,South,180,7.0,12.0,91,0.00,,---,0.00,VWS V14.01,2013-03-12 08:28:00,
2013-03-12 04:30:00,32.6,30.3,29.84,West,268,6.0,12.0,91,0.00,,---,0.00,VWS V14.01,2013-03-12 08:30:00,
2013-03-12 04:33:00,32.6,30.3,29.84,West,259,8.0,11.0,91,0.00,,---,0.00,VWS V14.01,2013-03-12 08:33:00,
2013-03-12 04:38:00,32.6,30.0,29.84,West,278,10.0,14.0,90,0.00,,---,0.00,VWS V14.01,2013-03-12 08:38:00,
2013-03-12 04:44:00,32.7,30.1,29.85,West,260,3.0,16.0,90,0.00,,---,0.00,VWS V14.01,2013-03-12 08:44:00,
2013-03-12 04:49:00,32.6,30.0,29.84,WNW,294,3.0,16.0,90,0.00,,---,0.00,VWS V14.01,2013-03-12 08:49:00,
2013-03-12 04:54:00,32.6,29.7,29.84,WSW,243,4.0,18.0,89,0.00,,---,0.00,VWS V14.01,2013-03-12 08:54:00,
2013-03-12 04:59:00,32.6,29.7,29.84,WNW,298,4.0,18.0,89,0.00,,---,0.00,VWS V14.01,2013-03-12 08:59:00,
2013-03-12 05:00:00,32.6,29.7,29.84,SW,232,3.0,18.0,89,0.00,,---,0.00,VWS V14.01,2013-03-12 09:00:00,
2013-03-12 05:04:00,32.6,29.7,29.84,SSW,201,2.0,10.0,89,0.00,,---,0.00,VWS V14.01,2013-03-12 09:04:00,
2013-03-12 05:10:00,32.6,29.5,29.84,NW,310,2.0,10.0,88,0.00,,---,0.00,VWS V14.01,2013-03-12 09:10:00,
2013-03-12 05:15:00,32.6,29.5,29.85,WNW,301,6.0,10.0,88,0.00,,---,0.00,VWS V14.01,2013-03-12 09:15:00,
2013-03-12 05:20:00,32.6,29.5,29.85,ESE,112,1.0,10.0,88,0.00,,---,0.00,VWS V14.01,2013-03-12 09:20:00,
2013-03-12 05:25:00,32.6,29.5,29.85,West,281,4.0,13.0,88,0.00,,---,0.00,VWS V14.01,2013-03-12 09:25:00,
2013-03-12 05:30:00,32.6,29.5,29.85,SW,228,3.0,13.0,88,0.00,,---,0.00,VWS V14.01,2013-03-12 09:30:00,
2013-03-12 05:36:00,32.6,29.5,29.85,SE,127,8.0,10.0,88,0.00,,---,0.00,VWS V14.01,2013-03-12 09:36:00,
2013-03-12 05:52:00,32.5,29.1,29.85,SW,231,6.0,14.0,87,0.00,,---,0.00,VWS V14.01,2013-03-12 09:52:00,
2013-03-12 05:57:00,32.5,29.1,29.85,WSW,243,10.0,15.0,87,0.00,,---,0.00,VWS V14.01,2013-03-12 09:57:00,
2013-03-12 06:00:00,32.5,29.1,29.85,WNW,298,5.0,15.0,87,0.00,,---,0.00,VWS V14.01,2013-03-12 10:00:00,
2013-03-12 06:02:00,32.5,29.1,29.86,West,260,3.0,8.0,87,0.00,,---,0.00,VWS V14.01,2013-03-12 10:02:00,
2013-03-12 06:07:00,32.5,29.4,29.86,West,277,8.0,12.0,88,0.00,,---,0.00,VWS V14.01,2013-03-12 10:07:00,
2013-03-12 06:12:00,32.5,29.4,29.86,WSW,252,3.0,12.0,88,0.00,,---,0.00,VWS V14.01,2013-03-12 10:12:00,
2013-03-12 06:18:00,32.4,29.2,29.86,WNW,301,3.0,12.0,88,0.00,,---,0.00,VWS V14.01,2013-03-12 10:18:00,
2013-03-12 06:23:00,32.4,29.2,29.87,NW,309,4.0,14.0,88,0.00,,---,0.00,VWS V14.01,2013-03-12 10:23:00,
2013-03-12 06:28:00,32.3,29.1,29.87,NW,306,5.0,14.0,88,0.00,,---,0.00,VWS V14.01,2013-03-12 10:28:00,
2013-03-12 06:30:00,32.3,29.1,29.87,West,278,7.0,17.0,88,0.00,,---,0.00,VWS V14.01,2013-03-12 10:30:00,
2013-03-12 06:33:00,32.3,29.1,29.87,WSW,239,4.0,11.0,88,0.00,,---,0.00,VWS V14.01,2013-03-12 10:33:00,
2013-03-12 06:38:00,32.2,29.0,29.87,WSW,248,3.0,11.0,88,0.00,,---,0.00,VWS V14.01,2013-03-12 10:38:00,
2013-03-12 06:44:00,32.2,29.3,29.87,WSW,237,2.0,11.0,89,0.00,,---,0.00,VWS V14.01,2013-03-12 10:44:00,
2013-03-12 06:49:00,32.1,29.2,29.88,West,274,11.0,11.0,89,0.00,,---,0.00,VWS V14.01,2013-03-12 10:49:00,
2013-03-12 06:54:00,32.0,29.1,29.88,SW,229,6.0,13.0,89,0.00,,---,0.00,VWS V14.01,2013-03-12 10:54:00,
2013-03-12 06:59:00,31.9,29.0,29.88,WNW,293,3.0,13.0,89,0.00,,---,0.00,VWS V14.01,2013-03-12 10:59:00,
2013-03-12 07:00:00,31.9,29.0,29.88,WNW,303,2.0,13.0,89,0.00,,---,0.00,VWS V14.01,2013-03-12 11:00:00,
2013-03-12 07:05:00,31.8,28.9,29.88,West,274,1.0,9.0,89,0.00,,---,0.00,VWS V14.01,2013-03-12 11:05:00,
2013-03-12 07:10:00,31.8,28.9,29.88,WNW,296,12.0,14.0,89,0.00,,---,0.00,VWS V14.01,2013-03-12 11:10:00,
2013-03-12 07:15:00,31.7,28.8,29.89,WSW,255,9.0,14.0,89,0.00,,---,0.00,VWS V14.01,2013-03-12 11:15:00,
2013-03-12 07:20:00,31.5,28.9,29.88,West,266,5.0,14.0,90,0.00,,---,0.00,VWS V14.01,2013-03-12 11:20:00,
2013-03-12 07:25:00,31.3,28.7,29.88,SW,225,6.0,14.0,90,0.00,,---,0.00,VWS V14.01,2013-03-12 11:25:00,
2013-03-12 07:30:00,31.2,28.6,29.88,SW,231,12.0,14.0,90,0.00,,---,0.00,VWS V14.01,2013-03-12 11:30:00,
2013-03-12 07:31:00,31.2,28.6,29.88,SW,221,5.0,12.0,90,0.00,,---,0.00,VWS V14.01,2013-03-12 11:31:00,
2013-03-12 07:36:00,31.1,28.5,29.89,NW,316,2.0,12.0,90,0.00,,---,0.00,VWS V14.01,2013-03-12 11:36:00,
2013-03-12 07:41:00,31.0,28.7,29.89,West,264,3.0,14.0,91,0.00,,---,0.00,VWS V14.01,2013-03-12 11:41:00,
2013-03-12 07:46:00,31.0,28.4,29.89,WSW,248,15.0,15.0,90,0.00,,---,0.00,VWS V14.01,2013-03-12 11:46:00,
2013-03-12 07:52:00,31.0,28.4,29.89,West,262,2.0,15.0,90,0.00,,---,0.00,VWS V14.01,2013-03-12 11:52:00,
2013-03-12 07:57:00,31.0,28.4,29.89,SW,221,3.0,15.0,90,0.00,,---,0.00,VWS V14.01,2013-03-12 11:57:00,
2013-03-12 08:00:00,31.0,28.4,29.89,West,266,4.0,15.0,90,0.00,,---,0.00,VWS V14.01,2013-03-12 12:00:00,
2013-03-12 08:02:00,31.0,28.4,29.89,WSW,257,7.0,10.0,90,0.00,,---,0.00,VWS V14.01,2013-03-12 12:02:00,
2013-03-12 08:07:00,30.9,28.3,29.89,WNW,303,11.0,12.0,90,0.00,,---,0.00,VWS V14.01,2013-03-12 12:07:00,
2013-03-12 08:12:00,30.9,28.3,29.89,West,266,11.0,12.0,90,0.00,,---,0.00,VWS V14.01,2013-03-12 12:12:00,
2013-03-12 08:18:00,30.8,28.2,29.89,West,260,4.0,12.0,90,0.00,,---,0.00,VWS V14.01,2013-03-12 12:18:00,
2013-03-12 08:23:00,30.8,28.2,29.90,WSW,244,6.0,12.0,90,0.00,,---,0.00,VWS V14.01,2013-03-12 12:23:00,
2013-03-12 08:28:00,30.8,28.2,29.90,WSW,249,4.0,13.0,90,0.00,,---,0.00,VWS V14.01,2013-03-12 12:28:00,
2013-03-12 08:30:00,30.8,28.2,29.90,West,274,1.0,13.0,90,0.00,,---,0.00,VWS V14.01,2013-03-12 12:30:00,
2013-03-12 08:33:00,30.8,28.2,29.90,SSW,200,5.0,8.0,90,0.00,,---,0.00,VWS V14.01,2013-03-12 12:33:00,
2013-03-12 08:38:00,30.7,28.1,29.91,SW,218,4.0,12.0,90,0.00,,---,0.00,VWS V14.01,2013-03-12 12:38:00,
2013-03-12 08:44:00,30.7,28.1,29.91,West,261,11.0,13.0,90,0.00,,---,0.00,VWS V14.01,2013-03-12 12:44:00,
2013-03-12 08:49:00,30.6,28.0,29.91,SW,214,4.0,13.0,90,0.00,,---,0.00,VWS V14.01,2013-03-12 12:49:00,
2013-03-12 08:54:00,30.6,28.0,29.91,West,259,7.0,15.0,90,0.00,,---,0.00,VWS V14.01,2013-03-12 12:54:00,
2013-03-12 08:59:00,30.7,28.1,29.91,West,273,5.0,15.0,90,0.00,,---,0.00,VWS V14.01,2013-03-12 12:59:00,
2013-03-12 09:00:00,30.8,28.2,29.91,SW,219,5.0,15.0,90,0.00,,---,0.00,VWS V14.01,2013-03-12 13:00:00,
2013-03-12 09:04:00,30.8,28.2,29.91,WNW,284,1.0,7.0,90,0.00,,---,0.00,VWS V14.01,2013-03-12 13:04:00,
2013-03-12 09:10:00,30.8,28.0,29.91,SE,145,2.0,15.0,89,0.00,,---,0.00,VWS V14.01,2013-03-12 13:10:00,
2013-03-12 09:15:00,30.9,28.3,29.91,WSW,256,9.0,15.0,90,0.00,,---,0.00,VWS V14.01,2013-03-12 13:15:00,
2013-03-12 09:20:00,30.8,28.0,29.91,West,277,3.0,15.0,89,0.00,,---,0.00,VWS V14.01,2013-03-12 13:20:00,
2013-03-12 09:25:00,30.9,28.0,29.91,NW,310,3.0,15.0,89,0.00,,---,0.00,VWS V14.01,2013-03-12 13:25:00,
2013-03-12 09:30:00,30.9,27.8,29.91,SSW,193,0.0,15.0,88,0.00,,---,0.00,VWS V14.01,2013-03-12 13:30:00,
2013-03-12 09:36:00,30.9,27.8,29.91,WNW,298,3.0,8.0,88,0.00,,---,0.00,VWS V14.01,2013-03-12 13:36:00,
2013-03-12 09:41:00,30.9,27.8,29.91,WNW,288,6.0,12.0,88,0.00,,---,0.00,VWS V14.01,2013-03-12 13:41:00,
2013-03-12 09:46:00,30.9,27.5,29.91,NNW,328,7.0,16.0,87,0.00,,---,0.00,VWS V14.01,2013-03-12 13:46:00,
2013-03-12 10:00:00,30.7,27.3,29.92,West,270,5.0,16.0,87,0.00,,---,0.00,VWS V14.01,2013-03-12 14:00:00,
2013-03-12 10:30:00,30.9,27.8,29.91,SSW,193,0.0,15.0,88,0.00,,---,0.00,VWS V14.01,2013-03-12 14:30:00,
2013-03-12 10:47:00,30.6,26.6,29.92,West,278,9.0,11.0,85,0.00,,---,0.00,VWS V14.01,2013-03-12 14:47:00,
2013-03-12 10:52:00,30.6,26.9,29.92,West,259,1.0,11.0,86,0.00,,---,0.00,VWS V14.01,2013-03-12 14:52:00,
2013-03-12 10:57:00,30.7,27.0,29.92,WSW,243,7.0,11.0,86,0.00,,---,0.00,VWS V14.01,2013-03-12 14:57:00,
2013-03-12 11:00:00,30.7,27.0,29.92,West,261,4.0,11.0,86,0.00,,---,0.00,VWS V14.01,2013-03-12 15:00:00,
2013-03-12 11:02:00,30.7,27.0,29.92,SW,223,1.0,4.0,86,0.00,,---,0.00,VWS V14.01,2013-03-12 15:02:00,
2013-03-12 11:07:00,30.7,27.0,29.92,WNW,300,3.0,9.0,86,0.00,,---,0.00,VWS V14.01,2013-03-12 15:07:00,
2013-03-12 11:13:00,30.8,26.8,29.92,SW,222,0.0,10.0,85,0.00,,---,0.00,VWS V14.01,2013-03-12 15:13:00,
2013-03-12 11:18:00,30.9,26.9,29.92,WSW,240,2.0,10.0,85,0.00,,---,0.00,VWS V14.01,2013-03-12 15:18:00,
2013-03-12 11:23:00,30.9,26.6,29.92,SSE,163,6.0,10.0,84,0.00,,---,0.00,VWS V14.01,2013-03-12 15:23:00,
2013-03-12 11:28:00,30.9,26.4,29.93,South,180,6.0,11.0,83,0.00,,---,0.00,VWS V14.01,2013-03-12 15:28:00,
2013-03-12 11:30:00,31.0,26.7,29.93,SW,236,6.0,11.0,84,0.00,,---,0.00,VWS V15.00,2013-03-12 15:30:00,
2013-03-12 11:33:00,31.0,26.5,29.93,WNW,288,2.0,10.0,83,0.00,,---,0.00,VWS V14.01,2013-03-12 15:33:00,
2013-03-12 11:39:00,31.2,26.4,29.93,WSW,248,4.0,11.0,82,0.00,,---,0.00,VWS V14.01,2013-03-12 15:39:00,
2013-03-12 11:44:00,31.3,26.5,29.93,South,169,3.0,11.0,82,0.00,,---,0.00,VWS V14.01,2013-03-12 15:44:00,
2013-03-12 11:49:00,31.4,26.2,29.93,WSW,255,5.0,11.0,81,0.00,,---,0.00,VWS V14.01,2013-03-12 15:49:00,
2013-03-12 11:54:00,31.6,26.1,29.93,NW,318,2.0,11.0,80,0.00,,---,0.00,VWS V14.01,2013-03-12 15:54:00,
2013-03-12 11:59:00,31.7,26.2,29.93,SW,233,2.0,11.0,80,0.00,,---,0.00,VWS V14.01,2013-03-12 15:59:00,
2013-03-12 12:00:00,31.8,26.3,29.93,West,261,10.0,11.0,80,0.00,,---,0.00,VWS V14.01,2013-03-12 16:00:00,
2013-03-12 12:05:00,31.9,26.1,29.93,West,268,6.0,14.0,79,0.00,,---,0.00,VWS V14.01,2013-03-12 16:05:00,
2013-03-12 12:10:00,31.8,26.0,29.93,WNW,294,2.0,14.0,79,0.00,,---,0.00,VWS V14.01,2013-03-12 16:10:00,
2013-03-12 12:15:00,31.9,25.8,29.94,SW,218,4.0,14.0,78,0.00,,---,0.00,VWS V14.01,2013-03-12 16:15:00,
2013-03-12 12:20:00,32.1,26.3,29.94,SSE,162,2.0,14.0,79,0.00,,---,0.00,VWS V14.01,2013-03-12 16:20:00,
2013-03-12 12:26:00,32.2,26.1,29.94,WSW,248,4.0,14.0,78,0.00,,---,0.00,VWS V14.01,2013-03-12 16:26:00,
2013-03-12 12:30:00,32.4,26.0,29.94,NW,312,3.0,14.0,77,0.00,,---,0.00,VWS V14.01,2013-03-12 16:30:00,
2013-03-12 12:31:00,32.4,26.0,29.94,West,266,1.0,3.0,77,0.00,,---,0.00,VWS V14.01,2013-03-12 16:31:00,
2013-03-12 12:36:00,32.7,26.3,29.94,SW,219,3.0,10.0,77,0.00,,---,0.00,VWS V14.01,2013-03-12 16:36:00,
2013-03-12 12:41:00,33.0,26.3,29.93,WNW,288,3.0,13.0,76,0.00,,---,0.00,VWS V14.01,2013-03-12 16:41:00,
2013-03-12 12:47:00,32.8,26.1,29.93,WNW,285,4.0,13.0,76,0.00,,---,0.00,VWS V14.01,2013-03-12 16:47:00,
2013-03-12 12:52:00,33.1,26.4,29.93,SSE,162,2.0,13.0,76,0.00,,---,0.00,VWS V14.01,2013-03-12 16:52:00,
2013-03-12 12:57:00,33.7,27.6,29.94,SW,214,3.0,13.0,78,0.00,,---,0.00,VWS V14.01,2013-03-12 16:57:00,
2013-03-12 13:00:00,33.8,27.0,29.93,SE,128,3.0,13.0,76,0.00,,---,0.00,VWS V14.01,2013-03-12 17:00:00,
2013-03-12 13:02:00,34.0,27.6,29.94,SW,215,6.0,10.0,77,0.00,,---,0.00,VWS V14.01,2013-03-12 17:02:00,
2013-03-12 13:08:00,34.2,27.1,29.93,South,172,4.0,10.0,75,0.00,,---,0.00,VWS V14.01,2013-03-12 17:08:00,
2013-03-12 13:13:00,34.0,26.3,29.94,SSE,159,7.0,13.0,73,0.00,,---,0.00,VWS V14.01,2013-03-12 17:13:00,
2013-03-12 13:18:00,34.2,26.8,29.94,South,169,0.0,13.0,74,0.00,,---,0.00,VWS V14.01,2013-03-12 17:18:00,
2013-03-12 13:23:00,34.4,27.3,29.93,North,349,0.0,13.0,75,0.00,,---,0.00,VWS V14.01,2013-03-12 17:23:00,
2013-03-12 13:28:00,34.9,27.1,29.94,South,188,6.0,13.0,73,0.00,,---,0.00,VWS V14.01,2013-03-12 17:28:00,
2013-03-12 13:30:00,35.1,27.7,29.94,SSE,167,5.0,13.0,74,0.00,,---,0.00,VWS V14.01,2013-03-12 17:30:00,
2013-03-12 13:34:00,35.4,27.6,29.93,South,174,7.0,8.0,73,0.00,,---,0.00,VWS V14.01,2013-03-12 17:34:00,
2013-03-12 13:39:00,35.8,28.0,29.93,WSW,250,8.0,11.0,73,0.00,,---,0.00,VWS V14.01,2013-03-12 17:39:00,
2013-03-12 13:44:00,36.1,28.3,29.93,WSW,242,6.0,11.0,73,0.00,,---,0.00,VWS V14.01,2013-03-12 17:44:00,
2013-03-12 13:49:00,35.7,26.2,29.93,NW,314,2.0,13.0,68,0.00,,---,0.00,VWS V14.01,2013-03-12 17:49:00,
2013-03-12 13:54:00,35.8,26.6,29.93,West,266,4.0,15.0,69,0.00,,---,0.00,VWS V14.01,2013-03-12 17:54:00,
2013-03-12 14:00:00,35.7,26.5,29.93,West,280,2.0,15.0,69,0.00,,---,0.00,VWS V14.01,2013-03-12 18:00:00,
2013-03-12 14:05:00,35.7,25.5,29.93,WNW,286,2.0,12.0,66,0.00,,---,0.00,VWS V14.01,2013-03-12 18:05:00,
2013-03-12 14:10:00,35.6,25.7,29.93,WSW,243,12.0,12.0,67,0.00,,---,0.00,VWS V14.01,2013-03-12 18:10:00,
2013-03-12 14:15:00,35.2,25.7,29.93,WSW,248,7.0,13.0,68,0.00,,---,0.00,VWS V14.01,2013-03-12 18:15:00,
2013-03-12 14:21:00,35.3,25.5,29.93,SSE,167,7.0,13.0,67,0.00,,---,0.00,VWS V14.01,2013-03-12 18:21:00,
2013-03-12 14:30:00,35.7,25.8,29.92,WSW,252,8.0,13.0,67,0.00,,---,0.00,VWS V14.01,2013-03-12 18:30:00,
2013-03-12 14:42:00,35.5,25.3,29.92,SSE,165,5.0,11.0,66,0.00,,---,0.00,VWS V14.01,2013-03-12 18:42:00,
2013-03-12 14:47:00,35.7,26.2,29.93,WSW,257,6.0,11.0,68,0.00,,---,0.00,VWS V14.01,2013-03-12 18:47:00,
2013-03-12 14:52:00,35.7,26.2,29.93,South,191,6.0,12.0,68,0.00,,---,0.00,VWS V14.01,2013-03-12 18:52:00,
2013-03-12 14:57:00,35.4,25.9,29.93,SSW,213,4.0,13.0,68,0.00,,---,0.00,VWS V14.01,2013-03-12 18:57:00,
2013-03-12 15:00:00,35.4,26.3,29.93,NW,314,6.0,13.0,69,0.00,,---,0.00,VWS V14.01,2013-03-12 19:00:00,
2013-03-12 15:02:00,35.2,25.7,29.93,WSW,245,8.0,14.0,68,0.00,,---,0.00,VWS V14.01,2013-03-12 19:02:00,
2013-03-12 15:08:00,34.9,25.4,29.93,SE,141,5.0,14.0,68,0.00,,---,0.00,VWS V14.01,2013-03-12 19:08:00,
2013-03-12 15:13:00,34.7,25.2,29.93,NW,305,9.0,14.0,68,0.00,,---,0.00,VWS V14.01,2013-03-12 19:13:00,
2013-03-12 15:18:00,34.6,25.8,29.93,WNW,283,7.0,14.0,70,0.00,,---,0.00,VWS V14.01,2013-03-12 19:18:00,
2013-03-12 15:23:00,34.6,26.2,29.93,West,273,5.0,14.0,71,0.00,,---,0.00,VWS V14.01,2013-03-12 19:23:00,
2013-03-12 15:29:00,34.6,25.8,29.93,WNW,283,7.0,14.0,70,0.00,,---,0.00,VWS V14.01,2013-03-12 19:29:00,
2013-03-12 15:30:00,34.5,25.7,29.93,West,264,5.0,15.0,70,0.00,,---,0.00,VWS V14.01,2013-03-12 19:30:00,
2013-03-12 15:34:00,34.4,26.0,29.93,WNW,288,7.0,11.0,71,0.00,,---,0.00,VWS V14.01,2013-03-12 19:34:00,
2013-03-12 15:39:00,34.3,26.6,29.93,West,277,8.0,13.0,73,0.00,,---,0.00,VWS V14.01,2013-03-12 19:39:00,
2013-03-12 15:44:00,34.1,26.4,29.93,WSW,255,6.0,14.0,73,0.00,,---,0.00,VWS V14.01,2013-03-12 19:44:00,
2013-03-12 15:50:00,34.1,26.0,29.93,West,259,5.0,14.0,72,0.00,,---,0.00,VWS V14.01,2013-03-12 19:50:00,
2013-03-12 15:55:00,34.1,25.7,29.94,WSW,256,5.0,14.0,71,0.00,,---,0.00,VWS V14.01,2013-03-12 19:55:00,
2013-03-12 16:00:00,34.1,25.7,29.94,West,278,4.0,16.0,71,0.00,,---,0.00,VWS V14.01,2013-03-12 20:00:00,
2013-03-12 16:05:00,34.1,25.4,29.94,SW,222,3.0,14.0,70,0.00,,---,0.00,VWS V14.01,2013-03-12 20:05:00,
2013-03-12 16:10:00,34.4,25.6,29.94,West,263,7.0,17.0,70,0.00,,---,0.00,VWS V14.01,2013-03-12 20:10:00,
2013-03-12 16:16:00,34.6,24.8,29.94,WNW,302,9.0,18.0,67,0.00,,---,0.00,VWS V14.01,2013-03-12 20:16:00,
2013-03-12 16:21:00,34.8,25.3,29.94,WSW,253,8.0,18.0,68,0.00,,---,0.00,VWS V14.01,2013-03-12 20:21:00,
2013-03-12 16:30:00,34.9,25.4,29.94,WSW,249,14.0,18.0,68,0.00,,---,0.00,VWS V14.01,2013-03-12 20:30:00,
2013-03-12 16:37:00,35.2,26.4,29.94,WSW,239,13.0,14.0,70,0.00,,---,0.00,VWS V14.01,2013-03-12 20:37:00,
2013-03-12 16:42:00,35.7,26.5,29.94,West,263,6.0,18.0,69,0.00,,---,0.00,VWS V14.01,2013-03-12 20:42:00,
2013-03-12 16:47:00,35.5,25.6,29.94,SE,145,5.0,18.0,67,0.00,,---,0.00,VWS V14.01,2013-03-12 20:47:00,
2013-03-12 16:52:00,35.6,26.5,29.94,West,259,8.0,18.0,69,0.00,,---,0.00,VWS V14.01,2013-03-12 20:52:00,
2013-03-12 16:57:00,35.4,25.9,29.94,WNW,302,1.0,18.0,68,0.00,,---,0.00,VWS V14.01,2013-03-12 20:57:00,
2013-03-12 17:00:00,35.3,25.8,29.94,WSW,244,10.0,18.0,68,0.00,,---,0.00,VWS V14.01,2013-03-12 21:00:00,
2013-03-12 17:03:00,35.2,25.7,29.94,West,266,2.0,13.0,68,0.00,,---,0.00,VWS V14.01,2013-03-12 21:03:00,
2013-03-12 17:08:00,35.3,26.2,29.94,WNW,284,8.0,13.0,69,0.00,,---,0.00,VWS V14.01,2013-03-12 21:08:00,
2013-03-12 17:13:00,35.3,26.2,29.94,West,273,2.0,14.0,69,0.00,,---,0.00,VWS V14.01,2013-03-12 21:13:00,
2013-03-12 17:18:00,35.5,26.4,29.94,WNW,285,6.0,14.0,69,0.00,,---,0.00,VWS V14.01,2013-03-12 21:18:00,
2013-03-12 17:24:00,35.4,25.9,29.94,WNW,285,5.0,18.0,68,0.00,,---,0.00,VWS V14.01,2013-03-12 21:24:00,
2013-03-12 17:29:00,35.5,26.4,29.94,NNW,327,2.0,18.0,69,0.00,,---,0.00,VWS V14.01,2013-03-12 21:29:00,
2013-03-12 17:30:00,35.5,26.4,29.94,WNW,302,2.0,18.0,69,0.00,,---,0.00,VWS V14.01,2013-03-12 21:30:00,
2013-03-12 17:34:00,35.5,26.0,29.94,WNW,287,6.0,12.0,68,0.00,,---,0.00,VWS V14.01,2013-03-12 21:34:00,
2013-03-12 17:39:00,35.6,26.5,29.94,West,262,8.0,12.0,69,0.00,,---,0.00,VWS V14.01,2013-03-12 21:39:00,
2013-03-12 17:44:00,35.9,26.4,29.94,West,277,6.0,12.0,68,0.00,,---,0.00,VWS V14.01,2013-03-12 21:44:00,
2013-03-12 17:50:00,36.1,26.6,29.94,NW,323,3.0,12.0,68,0.00,,---,0.00,VWS V14.01,2013-03-12 21:50:00,
2013-03-12 17:55:00,36.4,26.5,29.94,WNW,293,8.0,16.0,67,0.00,,---,0.00,VWS V14.01,2013-03-12 21:55:00,
2013-03-12 18:00:00,36.5,26.2,29.94,West,262,4.0,16.0,66,0.00,,---,0.00,VWS V14.01,2013-03-12 22:00:00,
2013-03-12 18:05:00,36.5,26.2,29.94,WNW,291,11.0,13.0,66,0.00,,---,0.00,VWS V14.01,2013-03-12 22:05:00,
2013-03-12 18:11:00,36.1,26.6,29.94,NW,312,5.0,13.0,68,0.00,,---,0.00,VWS V14.01,2013-03-12 22:11:00,
2013-03-12 18:21:00,35.6,26.8,29.94,NNW,345,6.0,18.0,70,0.00,,---,0.00,VWS V14.01,2013-03-12 22:21:00,
2013-03-12 18:26:00,35.4,27.0,29.94,WSW,255,3.0,18.0,71,0.00,,---,0.00,VWS V14.01,2013-03-12 22:26:00,
2013-03-12 18:30:00,35.5,26.4,29.94,WNW,302,2.0,18.0,69,0.00,,---,0.00,VWS V14.01,2013-03-12 22:30:00,
2013-03-12 18:32:00,35.2,26.8,29.94,WNW,297,5.0,11.0,71,0.00,,---,0.00,VWS V14.01,2013-03-12 22:32:00,
2013-03-12 18:42:00,35.0,27.6,29.94,West,259,5.0,11.0,74,0.00,,---,0.00,VWS V14.01,2013-03-12 22:42:00,
2013-03-12 18:47:00,34.6,28.1,29.94,WNW,293,3.0,13.0,77,0.00,,---,0.00,VWS V14.01,2013-03-12 22:47:00,
2013-03-12 18:53:00,33.9,28.7,29.94,WNW,303,3.0,13.0,81,0.00,,---,0.00,VWS V14.01,2013-03-12 22:53:00,
2013-03-12 18:58:00,33.4,29.1,29.94,WSW,253,6.0,14.0,84,0.00,,---,0.00,VWS V14.01,2013-03-12 22:58:00,
2013-03-12 19:00:00,33.2,29.2,29.95,SSW,207,2.0,14.0,85,0.00,,---,0.00,VWS V14.01,2013-03-12 23:00:00,
2013-03-12 19:03:00,32.9,29.2,29.95,West,269,4.0,9.0,86,0.00,,---,0.00,VWS V14.01,2013-03-12 23:03:00,
2013-03-12 19:08:00,32.5,29.6,29.95,WSW,239,1.0,9.0,89,0.00,,---,0.00,VWS V14.01,2013-03-12 23:08:00,
2013-03-12 19:14:00,32.0,29.7,29.95,West,273,5.0,12.0,91,0.00,,---,0.00,VWS V14.01,2013-03-12 23:14:00,
2013-03-12 19:19:00,31.6,29.8,29.95,West,281,2.0,12.0,93,0.00,,---,0.00,VWS V14.01,2013-03-12 23:19:00,
2013-03-12 19:24:00,31.5,30.0,29.95,SSW,195,0.0,12.0,94,0.00,,---,0.00,VWS V14.01,2013-03-12 23:24:00,
2013-03-12 19:29:00,31.4,29.9,29.95,South,177,3.0,12.0,94,0.00,,---,0.00,VWS V14.01,2013-03-12 23:29:00,
2013-03-12 19:30:00,31.4,29.9,29.95,WSW,239,1.0,12.0,94,0.00,,---,0.00,VWS V14.01,2013-03-12 23:30:00,
2013-03-12 19:34:00,31.4,30.1,29.94,SSE,165,0.0,4.0,95,0.00,,---,0.00,VWS V14.01,2013-03-12 23:34:00,
2013-03-12 19:40:00,31.4,30.1,29.94,SSW,195,1.0,4.0,95,0.00,,---,0.00,VWS V14.01,2013-03-12 23:40:00,
2013-03-12 19:45:00,31.5,30.2,29.94,SW,225,4.0,5.0,95,0.00,,---,0.00,VWS V14.01,2013-03-12 23:45:00,
2013-03-12 19:50:00,31.6,30.3,29.94,SW,218,3.0,6.0,95,0.00,,---,0.00,VWS V14.01,2013-03-12 23:50:00,
2013-03-12 19:55:00,31.6,30.3,29.95,WSW,240,2.0,7.0,95,0.00,,---,0.00,VWS V14.01,2013-03-12 23:55:00,
2013-03-12 20:00:00,31.7,30.2,29.95,East,94,1.0,7.0,94,0.00,,---,0.00,VWS V14.01,2013-03-13 00:00:00,
2013-03-12 20:06:00,31.8,30.3,29.95,South,173,2.0,7.0,94,0.00,,---,0.00,VWS V14.01,2013-03-13 00:06:00,
2013-03-12 20:11:00,31.9,30.4,29.95,WNW,295,0.0,7.0,94,0.00,,---,0.00,VWS V14.01,2013-03-13 00:11:00,
2013-03-12 20:16:00,31.9,30.1,29.95,SSW,204,3.0,7.0,93,0.00,,---,0.00,VWS V14.01,2013-03-13 00:16:00,
2013-03-12 20:21:00,32.0,30.2,29.95,WSW,237,1.0,7.0,93,0.00,,---,0.00,VWS V14.01,2013-03-13 00:21:00,
2013-03-12 20:27:00,32.0,30.2,29.95,WNW,294,1.0,7.0,93,0.00,,---,0.00,VWS V14.01,2013-03-13 00:27:00,
2013-03-12 20:30:00,32.0,29.9,29.95,West,281,1.0,7.0,92,0.00,,---,0.00,VWS V14.01,2013-03-13 00:30:00,
2013-03-12 20:32:00,32.0,29.9,29.95,WSW,246,3.0,3.0,92,0.00,,---,0.00,VWS V14.01,2013-03-13 00:32:00,
2013-03-12 20:37:00,32.1,30.0,29.95,WSW,240,2.0,8.0,92,0.00,,---,0.00,VWS V14.01,2013-03-13 00:37:00,
2013-03-12 20:42:00,32.1,29.8,29.95,West,277,7.0,8.0,91,0.00,,---,0.00,VWS V14.01,2013-03-13 00:42:00,
2013-03-12 20:47:00,32.1,29.5,29.95,SW,229,5.0,8.0,90,0.00,,---,0.00,VWS V14.01,2013-03-13 00:47:00,
2013-03-12 20:53:00,32.1,29.2,29.95,WSW,243,3.0,14.0,89,0.00,,---,0.00,VWS V14.01,2013-03-13 00:53:00,
2013-03-12 20:58:00,32.1,29.2,29.96,SSE,149,4.0,14.0,89,0.00,,---,0.00,VWS V14.01,2013-03-13 00:58:00,
2013-03-12 21:00:00,32.1,29.0,29.96,WNW,291,3.0,14.0,88,0.00,,---,0.00,VWS V14.01,2013-03-13 01:00:00,
2013-03-12 21:03:00,32.1,29.0,29.96,WSW,242,8.0,8.0,88,0.00,,---,0.00,VWS V14.01,2013-03-13 01:03:00,
2013-03-12 21:08:00,32.1,29.0,29.96,SW,223,6.0,11.0,88,0.00,,---,0.00,VWS V14.01,2013-03-13 01:08:00,
2013-03-12 21:14:00,32.0,29.1,29.96,SSW,202,3.0,11.0,89,0.00,,---,0.00,VWS V14.01,2013-03-13 01:14:00,
2013-03-12 21:19:00,32.1,29.0,29.96,SSW,205,0.0,11.0,88,0.00,,---,0.00,VWS V14.01,2013-03-13 01:19:00,
2013-03-12 21:24:00,32.1,29.0,29.96,SW,233,6.0,11.0,88,0.00,,---,0.00,VWS V14.01,2013-03-13 01:24:00,
2013-03-12 21:29:00,32.2,29.0,29.96,WSW,257,7.0,11.0,88,0.00,,---,0.00,VWS V14.01,2013-03-13 01:29:00,
2013-03-12 21:30:00,32.2,28.8,29.95,South,186,7.0,11.0,87,0.00,,---,0.00,VWS V14.01,2013-03-13 01:30:00,
2013-03-12 21:34:00,32.4,28.7,29.95,WSW,256,3.0,10.0,86,0.00,,---,0.00,VWS V14.01,2013-03-13 01:34:00,
2013-03-12 21:40:00,32.4,28.7,29.95,SSE,157,2.0,10.0,86,0.00,,---,0.00,VWS V14.01,2013-03-13 01:40:00,
2013-03-12 21:45:00,32.4,28.7,29.95,East,98,3.0,10.0,86,0.00,,---,0.00,VWS V14.01,2013-03-13 01:45:00,
2013-03-12 21:50:00,32.4,28.7,29.95,SSW,212,4.0,10.0,86,0.00,,---,0.00,VWS V14.01,2013-03-13 01:50:00,
2013-03-12 21:55:00,32.4,28.7,29.96,SW,231,4.0,10.0,86,0.00,,---,0.00,VWS V14.01,2013-03-13 01:55:00,
2013-03-12 22:00:00,32.4,28.7,29.96,NW,307,4.0,10.0,86,0.00,,---,0.00,VWS V14.01,2013-03-13 02:00:00,
2013-03-12 22:06:00,32.4,28.7,29.96,SW,218,3.0,9.0,86,0.00,,---,0.00,VWS V14.01,2013-03-13 02:06:00,
2013-03-12 22:11:00,32.4,29.0,29.96,South,177,4.0,9.0,87,0.00,,---,0.00,VWS V14.01,2013-03-13 02:11:00,
2013-03-12 22:16:00,32.3,29.1,29.96,NW,318,2.0,9.0,88,0.00,,---,0.00,VWS V14.01,2013-03-13 02:16:00,
2013-03-12 22:22:00,32.2,28.5,29.96,WSW,243,8.0,14.0,86,0.00,,---,0.00,VWS V14.01,2013-03-13 02:22:00,
2013-03-12 22:27:00,32.3,28.3,29.96,SW,236,8.0,16.0,85,0.00,,---,0.00,VWS V14.01,2013-03-13 02:27:00,
2013-03-12 22:30:00,32.2,28.2,29.97,WSW,256,10.0,16.0,85,0.00,,---,0.00,VWS V14.01,2013-03-13 02:30:00,
2013-03-12 22:32:00,32.1,27.8,29.97,WSW,248,7.0,15.0,84,0.00,,---,0.00,VWS V14.01,2013-03-13 02:32:00,
2013-03-12 22:37:00,32.0,27.7,29.97,West,262,5.0,15.0,84,0.00,,---,0.00,VWS V14.01,2013-03-13 02:37:00,
2013-03-12 22:43:00,31.8,27.8,29.97,WNW,290,7.0,15.0,85,0.00,,---,0.00,VWS V14.01,2013-03-13 02:43:00,
2013-03-12 22:48:00,31.0,28.1,29.98,NW,312,9.0,21.0,89,0.00,,---,0.00,VWS V14.01,2013-03-13 02:48:00,
2013-03-12 22:53:00,30.0,27.7,29.98,WNW,292,3.0,21.0,91,0.00,,---,0.00,VWS V14.01,2013-03-13 02:53:00,
2013-03-12 22:58:00,29.5,27.5,29.98,West,281,9.0,21.0,92,0.00,,---,0.00,VWS V14.01,2013-03-13 02:58:00,
2013-03-12 23:00:00,29.4,27.4,29.98,WNW,292,1.0,21.0,92,0.00,,---,0.00,VWS V14.01,2013-03-13 03:00:00,
2013-03-12 23:03:00,29.4,27.4,29.97,WNW,298,9.0,11.0,92,0.00,,---,0.00,VWS V14.01,2013-03-13 03:03:00,
2013-03-12 23:09:00,29.7,27.1,29.98,WNW,283,8.0,13.0,90,0.00,,---,0.00,VWS V14.01,2013-03-13 03:09:00,
2013-03-12 23:14:00,30.0,26.9,29.98,NNW,343,2.0,16.0,88,0.00,,---,0.00,VWS V14.01,2013-03-13 03:14:00,
2013-03-12 23:19:00,30.1,27.0,29.98,West,279,6.0,16.0,88,0.00,,---,0.00,VWS V14.01,2013-03-13 03:19:00,
2013-03-12 23:24:00,30.2,27.1,29.98,NW,309,4.0,16.0,88,0.00,,---,0.00,VWS V14.01,2013-03-13 03:24:00,
2013-03-12 23:29:00,30.3,26.9,29.98,NW,305,3.0,16.0,87,0.00,,---,0.00,VWS V14.01,2013-03-13 03:29:00,
2013-03-12 23:30:00,30.3,26.9,29.98,NW,309,13.0,16.0,87,0.00,,---,0.00,VWS V14.01,2013-03-13 03:30:00,
2013-03-12 23:35:00,30.1,26.7,29.98,WNW,301,8.0,17.0,87,0.00,,---,0.00,VWS V14.01,2013-03-13 03:35:00,
2013-03-12 23:40:00,29.9,26.8,29.98,WNW,302,1.0,17.0,88,0.00,,---,0.00,VWS V14.01,2013-03-13 03:40:00,
2013-03-12 23:45:00,29.9,26.5,29.98,SSW,201,6.0,17.0,87,0.00,,---,0.00,VWS V14.01,2013-03-13 03:45:00,
2013-03-12 23:50:00,30.0,26.0,29.98,WNW,297,6.0,17.0,85,0.00,,---,0.00,VWS V14.01,2013-03-13 03:50:00,
2013-03-12 23:55:00,30.0,26.0,29.98,NW,314,6.0,20.0,85,0.00,,---,0.00,VWS V14.01,2013-03-13 03:55:00,